Date,TemperatureHighF,TemperatureAvgF,TemperatureLowF,DewpointHighF,DewpointAvgF,DewpointLowF,HumidityHigh,HumidityAvg,HumidityLow,PressureMaxIn,PressureMinIn,WindSpeedMaxMPH,WindSpeedAvgMPH,GustSpeedMaxMPH,PrecipitationSumIn
2013-1-1,37,34,26,32,26,14,89,71,60,29.92,29.75,28,8,28,0.17
2013-1-2,31,26,21,21,17,12,82,67,57,30.09,29.91,26,6,26,0.00
2013-1-3,27,22,18,20,15,11,86,74,55,30.15,30.04,23,4,23,0.00
2013-1-4,37,33,27,30,26,19,83,76,66,30.04,29.87,24,6,25,0.02
2013-1-5,40,33,24,30,26,20,89,75,59,30.31,29.89,23,5,29,0.05
2013-1-6,40,33,23,36,30,21,97,90,76,30.26,29.98,18,2,18,0.15
2013-1-7,41,34,25,35,30,23,96,86,75,30.45,30.00,17,3,17,0.10
2013-1-8,44,37,25,36,33,23,96,87,74,30.43,30.33,22,4,23,0.09
2013-1-9,45,37,27,42,35,26,98,90,81,30.44,30.05,25,3,25,0.00
2013-1-10,44,41,36,37,31,28,81,67,55,30.53,30.08,26,6,26,0.00
2013-1-11,43,38,28,38,32,25,94,80,70,30.53,30.26,15,2,15,0.07
2013-1-12,47,42,38,44,40,36,96,92,78,30.28,30.16,13,2,13,0.04
2013-1-13,51,46,42,50,46,41,98,96,94,30.21,30.07,15,3,17,0.00
2013-1-14,53,49,45,52,47,37,99,92,66,30.29,29.96,25,4,25,0.01
2013-1-15,45,41,38,40,38,36,96,90,78,30.32,30.23,10,1,12,0.16
2013-1-16,43,40,37,42,39,36,98,96,93,30.26,29.79,20,3,20,0.67
2013-1-17,42,38,34,36,34,26,96,86,73,30.10,29.88,17,4,17,0.01
2013-1-18,34,25,22,26,15,7,94,67,50,30.51,30.05,27,5,27,0.00
2013-1-19,44,38,21,41,32,12,90,80,62,30.48,29.99,34,8,36,0.23
2013-1-20,50,44,32,43,37,17,93,76,54,29.99,29.62,28,8,31,0.00
2013-1-21,32,29,26,27,17,11,94,63,46,30.14,29.79,24,4,30,0.00
2013-1-22,30,25,20,28,17,7,93,71,51,30.07,29.73,28,6,28,0.00
2013-1-23,20,16,13,10,3,0,67,57,51,30.16,30.06,34,8,39,0.00
2013-1-24,20,16,11,8,4,1,72,60,46,30.20,30.05,35,8,35,0.00
2013-1-25,26,21,15,16,9,3,72,62,50,30.32,30.07,34,5,34,0.00
2013-1-26,26,23,20,23,16,6,89,75,52,30.20,29.99,24,4,24,0.00
2013-1-27,29,24,19,15,12,9,71,60,48,30.48,30.20,30,6,30,0.00
2013-1-28,33,27,18,32,19,10,95,72,47,30.48,30.04,13,2,13,0.05
2013-1-29,40,36,33,38,35,32,97,95,92,30.25,30.02,9,1,11,0.34
2013-1-30,57,49,39,56,48,37,98,95,90,30.20,29.60,25,5,25,0.09
2013-1-31,59,48,33,57,43,21,96,83,58,29.63,29.11,33,6,38,0.45